BEIDOU-3 M13 (C32)

Last updated on Dec. 12, 2019, 4:25 a.m. UTC

1 43622U 18072A   19345.31065029  .00000075  00000-0  00000+0 0  9994
2 43622  55.0762 142.2891 0003683 285.9596 128.6259  1.86231712  8333
UTC
Height (km)
Latitude
Longitude
Inclination
Orbital Period
UTC large
Height (km)
Speed (km/s)
/
Latitude / Longitude
Inclination (degrees)
Orbital Period (minutes)
Azimuth
Elevation
Range (km)
Doppler Factor
iOS Compass Heading
iOS Angle

Next 30 passes for location: Hong Kong

Rise time Rise Azimuth (degrees) Set time Set Azimuth (degrees) Duration Max altitude (degrees)

No matching passes for this satellites